<?xml version="1.0"?>
<gpx xmlns="http://www.topografix.com/GPX/1/1" xmlns:xsi="http://www.w3.org/2001/XMLSchema-instance" version="1.1" creator="GPX RubyGem 1.0.0 -- http://dougfales.github.io/gpx/" xsi:schemaLocation="http://www.topografix.com/GPX/1/1 http://www.topografix.com/GPX/1/1/gpx.xsd">
  <metadata>
    <name/>
    <time>2026-05-08T07:52:12+00:00</time>
    <bound minlat="90.0" minlon="180.0" maxlat="-90.0" maxlon="-180.0"/>
  </metadata>
  <trk>
    <name/>
    <trkseg>
      <trkpt lat="45.474935" lon="12.201599">
        <time>1970-01-01T00:00:00+00:00</time>
        <ele>2.0</ele>
      </trkpt>
      <trkpt lat="45.475009" lon="12.20161">
        <time>1970-01-01T00:00:00+00:00</time>
        <ele>2.0</ele>
      </trkpt>
      <trkpt lat="45.474986" lon="12.201806">
        <time>1970-01-01T00:00:00+00:00</time>
        <ele>2.0</ele>
      </trkpt>
      <trkpt lat="45.474839" lon="12.203021">
        <time>1970-01-01T00:00:00+00:00</time>
        <ele>2.0</ele>
      </trkpt>
      <trkpt lat="45.474828" lon="12.20322">
        <time>1970-01-01T00:00:00+00:00</time>
        <ele>2.0</ele>
      </trkpt>
      <trkpt lat="45.474809" lon="12.203589">
        <time>1970-01-01T00:00:00+00:00</time>
        <ele>2.0</ele>
      </trkpt>
      <trkpt lat="45.474782" lon="12.203797">
        <time>1970-01-01T00:00:00+00:00</time>
        <ele>2.0</ele>
      </trkpt>
      <trkpt lat="45.474689" lon="12.203847">
        <time>1970-01-01T00:00:00+00:00</time>
        <ele>3.0</ele>
      </trkpt>
      <trkpt lat="45.474676" lon="12.204012">
        <time>1970-01-01T00:00:00+00:00</time>
        <ele>2.0</ele>
      </trkpt>
      <trkpt lat="45.474668" lon="12.204108">
        <time>1970-01-01T00:00:00+00:00</time>
        <ele>1.0</ele>
      </trkpt>
      <trkpt lat="45.474653" lon="12.204287">
        <time>1970-01-01T00:00:00+00:00</time>
        <ele>1.0</ele>
      </trkpt>
      <trkpt lat="45.474203" lon="12.20423">
        <time>1970-01-01T00:00:00+00:00</time>
        <ele>2.0</ele>
      </trkpt>
      <trkpt lat="45.474286" lon="12.204946">
        <time>1970-01-01T00:00:00+00:00</time>
        <ele>3.0</ele>
      </trkpt>
      <trkpt lat="45.474403" lon="12.20497">
        <time>1970-01-01T00:00:00+00:00</time>
        <ele>3.0</ele>
      </trkpt>
      <trkpt lat="45.474403" lon="12.20497">
        <time>1970-01-01T00:00:00+00:00</time>
        <ele>3.0</ele>
      </trkpt>
      <trkpt lat="45.474286" lon="12.204946">
        <time>1970-01-01T00:00:00+00:00</time>
        <ele>3.0</ele>
      </trkpt>
      <trkpt lat="45.474203" lon="12.20423">
        <time>1970-01-01T00:00:00+00:00</time>
        <ele>2.0</ele>
      </trkpt>
      <trkpt lat="45.474653" lon="12.204287">
        <time>1970-01-01T00:00:00+00:00</time>
        <ele>1.0</ele>
      </trkpt>
      <trkpt lat="45.474668" lon="12.204108">
        <time>1970-01-01T00:00:00+00:00</time>
        <ele>1.0</ele>
      </trkpt>
      <trkpt lat="45.474676" lon="12.204012">
        <time>1970-01-01T00:00:00+00:00</time>
        <ele>2.0</ele>
      </trkpt>
      <trkpt lat="45.474689" lon="12.203847">
        <time>1970-01-01T00:00:00+00:00</time>
        <ele>3.0</ele>
      </trkpt>
      <trkpt lat="45.474782" lon="12.203797">
        <time>1970-01-01T00:00:00+00:00</time>
        <ele>2.0</ele>
      </trkpt>
      <trkpt lat="45.474809" lon="12.203589">
        <time>1970-01-01T00:00:00+00:00</time>
        <ele>2.0</ele>
      </trkpt>
      <trkpt lat="45.474828" lon="12.20322">
        <time>1970-01-01T00:00:00+00:00</time>
        <ele>2.0</ele>
      </trkpt>
      <trkpt lat="45.474839" lon="12.203021">
        <time>1970-01-01T00:00:00+00:00</time>
        <ele>2.0</ele>
      </trkpt>
      <trkpt lat="45.474986" lon="12.201806">
        <time>1970-01-01T00:00:00+00:00</time>
        <ele>2.0</ele>
      </trkpt>
      <trkpt lat="45.475009" lon="12.20161">
        <time>1970-01-01T00:00:00+00:00</time>
        <ele>2.0</ele>
      </trkpt>
      <trkpt lat="45.474935" lon="12.201599">
        <time>1970-01-01T00:00:00+00:00</time>
        <ele>2.0</ele>
      </trkpt>
    </trkseg>
  </trk>
</gpx>
